Regional Weather Roundup
Issued by NWS

Home | Current Version | Previous Version | Graphics & Text | Print | Product List | Glossary On
Versions: 1 2 3 4 5 6 7 8 9 10 11 12 13 14 15 16 17 18 19 20 21 22 23 24 25 26 27 28 29 30 31 32 33 34 35 36 37 38 39 40 41 42 43 44 45 46 47 48 49 50
000
ASUS45 KSLC 261710
RWRUT

UTAH REGIONAL WEATHER ROUNDUP
NATIONAL WEATHER SERVICE SALT LAKE CITY UT
1100 AM MDT TUE AUG 26 2014

UTZ001>011-023>025-261800-

NORTHERN UTAH

CITY           SKY/WX    TMP DP  RH WIND       PRES   REMARKS
HILL AFB       PTSUNNY   69  51  53 SE8       30.19R
LOGAN          SUNNY     67  55  65 NE6       30.17S
OGDEN          PTSUNNY   71  50  47 VRB3      30.17R
PROVO AIRPORT  PTSUNNY   66  55  68 W7        30.19R
SALT LAKE CITY PTSUNNY   70  51  51 N6        30.16R
VERNAL         PTSUNNY   66  53  63 CALM      30.25R
WENDOVER       SUNNY     70  41  35 E6        30.16S
HEBER CITY     MOSUNNY   63  50  63 CALM      30.24S
WEST JORDAN    SUNNY     72  57  60 SE6       30.18R

$$

UTZ012>022-026-027-261800-

SOUTHERN UTAH

CITY           SKY/WX    TMP DP  RH WIND       PRES   REMARKS
BRYCE CANYON   PTSUNNY   61  46  57 SE13      30.35R
CEDAR CITY     PTSUNNY   72  42  34 S15G23    30.18S
MILFORD        CLOUDY    71  47  42 N6        30.16R
MOAB/CYNLANDS  SUNNY     75  48  38 CALM      30.14R
PRICE          PTSUNNY   68  52  56 S3        30.24R
ST GEORGE      MOSUNNY   84  54  34 SE13      30.05R
KANAB          PTSUNNY   73  52  46 SE5       30.23S

$$

REGIONAL REPORTS     COLORADO/ARIZONA

CITY           SKY/WX    TMP DP  RH WIND       PRES   REMARKS
CRAIG, CO      PTSUNNY   57  51  80 CALM      30.31R
GRAND JUNCTION CLOUDY    73  47  39 S5        30.18R
RIFLE          PTSUNNY   67  49  52 N3        30.24S
MONTROSE       MOSUNNY   77  44  30 E10       30.25S
CORTEZ         MOSUNNY   74  46  36 VRB3      30.27R
PAGE, AZ       CLOUDY    78  49  35 N7        30.17R
GRAND CANYON   CLOUDY    64  55  72 SW6       30.32F
KINGMAN        CLOUDY    71  60  68 CALM      30.12R
FLAGSTAFF      PTSUNNY   62  51  67 SE3       30.36R

$$

REGIONAL REPORTS    NEVADA/IDAHO/WYOMING

CITY           SKY/WX    TMP DP  RH WIND       PRES   REMARKS
LAS VEGAS, NV  PTSUNNY   85  47  26 S21       29.94R
ELY            SUNNY     63  43  48 N10G20    30.21S
ELKO           SUNNY     63  47  55 CALM      30.18R
POCATELLO, ID  MOSUNNY   63  53  70 VRB3      30.20S
BURLEY         SUNNY     63  50  62 SW3       30.18R
EVANSTON, WY   MOSUNNY   61  48  62 E9        30.31R
ROCK SPRINGS   SUNNY     60  44  55 VRB5      30.31S

$$



USA.gov is the U.S. government's official web portal to all federal, state and local government web resources and services.